Time,TemperatureF,DewpointF,PressureIn,WindDirection,WindDirectionDegrees,WindSpeedMPH,WindSpeedGustMPH,Humidity,HourlyPrecipIn,Conditions,Clouds,dailyrainin,SolarRadiationWatts/m^2,SoftwareType,DateUTC
2013-05-16 00:02:00,68.0,19.0,-100.00,SW,222,20.0,28.0,15,0.00,,,0.00,0.000000,,2013-05-16 07:02:00,
2013-05-16 00:12:00,68.0,19.0,-100.00,SW,222,20.0,28.0,15,0.00,,,0.00,0.000000,,2013-05-16 07:12:00,
2013-05-16 00:24:00,68.0,19.0,-100.00,SW,222,20.0,28.0,15,0.00,,,0.00,0.000000,,2013-05-16 07:24:00,
2013-05-16 00:54:00,68.0,14.0,-100.00,SW,235,14.0,28.0,12,0.00,,,0.00,0.000000,,2013-05-16 07:54:00,
2013-05-16 01:03:00,68.0,14.0,-100.00,SW,235,14.0,28.0,12,0.00,,,0.00,0.000000,,2013-05-16 08:03:00,
2013-05-16 01:13:00,68.0,14.0,-100.00,SW,235,14.0,28.0,12,0.00,,,0.00,0.000000,,2013-05-16 08:13:00,
2013-05-16 01:23:00,68.0,14.0,-100.00,SW,235,14.0,28.0,12,0.00,,,0.00,0.000000,,2013-05-16 08:23:00,
2013-05-16 01:55:00,68.0,9.0,-100.00,West,262,13.0,30.0,10,0.00,,,0.00,0.000000,,2013-05-16 08:55:00,
2013-05-16 02:04:00,68.0,9.0,-100.00,West,262,13.0,30.0,10,0.00,,,0.00,0.000000,,2013-05-16 09:04:00,
2013-05-16 02:14:00,68.0,9.0,-100.00,West,262,13.0,30.0,10,0.00,,,0.00,0.000000,,2013-05-16 09:14:00,
2013-05-16 02:55:00,67.0,13.0,-100.00,WSW,241,13.0,28.0,12,0.00,,,0.00,0.000000,,2013-05-16 09:55:00,
2013-05-16 03:04:00,67.0,13.0,-100.00,WSW,241,13.0,28.0,12,0.00,,,0.00,0.000000,,2013-05-16 10:04:00,
2013-05-16 03:15:00,67.0,13.0,-100.00,WSW,241,13.0,28.0,12,0.00,,,0.00,0.000000,,2013-05-16 10:15:00,
2013-05-16 03:24:00,67.0,13.0,-100.00,WSW,241,13.0,28.0,12,0.00,,,0.00,0.000000,,2013-05-16 10:24:00,
2013-05-16 03:56:00,66.0,14.0,-100.00,SW,224,13.0,22.0,13,0.00,,,0.00,0.000000,,2013-05-16 10:56:00,
2013-05-16 04:05:00,66.0,14.0,-100.00,SW,224,13.0,22.0,13,0.00,,,0.00,0.000000,,2013-05-16 11:05:00,
2013-05-16 04:14:00,66.0,14.0,-100.00,SW,224,13.0,22.0,13,0.00,,,0.00,0.000000,,2013-05-16 11:14:00,
2013-05-16 04:25:00,66.0,14.0,-100.00,SW,224,13.0,22.0,13,0.00,,,0.00,0.000000,,2013-05-16 11:25:00,
2013-05-16 04:57:00,62.0,20.0,-100.00,SW,216,17.0,21.0,20,0.00,,,0.00,0.000000,,2013-05-16 11:57:00,
2013-05-16 05:06:00,62.0,20.0,-100.00,SW,216,17.0,21.0,20,0.00,,,0.00,0.000000,,2013-05-16 12:06:00,
2013-05-16 05:13:00,62.0,20.0,-100.00,SW,216,17.0,21.0,20,0.00,,,0.00,0.000000,,2013-05-16 12:13:00,
2013-05-16 05:23:00,62.0,20.0,-100.00,SW,216,17.0,21.0,20,0.00,,,0.00,0.000000,,2013-05-16 12:23:00,
2013-05-16 05:26:00,62.0,19.0,-100.00,SW,220,15.0,23.0,19,0.00,,,0.00,0.000000,,2013-05-16 12:26:00,
2013-05-16 05:53:00,62.0,19.0,-100.00,SW,220,15.0,23.0,19,0.00,,,0.00,0.000000,,2013-05-16 12:53:00,
2013-05-16 06:04:00,62.0,19.0,-100.00,SW,220,15.0,23.0,19,0.00,,,0.00,0.000000,,2013-05-16 13:04:00,
2013-05-16 06:12:00,62.0,19.0,-100.00,SW,220,15.0,23.0,19,0.00,,,0.00,0.000000,,2013-05-16 13:12:00,
2013-05-16 06:55:00,62.0,19.0,-100.00,SW,224,16.0,24.0,19,0.00,,,0.00,19.000000,,2013-05-16 13:55:00,
2013-05-16 07:05:00,62.0,19.0,-100.00,SW,224,16.0,24.0,19,0.00,,,0.00,19.000000,,2013-05-16 14:05:00,
2013-05-16 07:15:00,62.0,19.0,-100.00,SW,224,16.0,24.0,19,0.00,,,0.00,19.000000,,2013-05-16 14:15:00,
2013-05-16 07:23:00,62.0,19.0,-100.00,SW,224,16.0,24.0,19,0.00,,,0.00,19.000000,,2013-05-16 14:23:00,
2013-05-16 07:26:00,62.0,19.0,-100.00,SW,218,15.0,22.0,19,0.00,,,0.00,147.000000,,2013-05-16 14:26:00,
2013-05-16 07:56:00,62.0,19.0,-100.00,SW,218,15.0,22.0,19,0.00,,,0.00,147.000000,,2013-05-16 14:56:00,
2013-05-16 08:08:00,62.0,19.0,-100.00,SW,218,15.0,22.0,19,0.00,,,0.00,147.000000,,2013-05-16 15:08:00,
2013-05-16 08:17:00,62.0,19.0,-100.00,SW,218,15.0,22.0,19,0.00,,,0.00,147.000000,,2013-05-16 15:17:00,
2013-05-16 09:00:00,63.0,24.0,-100.00,SSW,194,16.0,21.0,22,0.00,,,0.00,426.000000,,2013-05-16 16:00:00,
2013-05-16 09:09:00,63.0,24.0,-100.00,SSW,194,16.0,21.0,22,0.00,,,0.00,426.000000,,2013-05-16 16:09:00,
2013-05-16 09:19:00,63.0,24.0,-100.00,SSW,194,16.0,21.0,22,0.00,,,0.00,426.000000,,2013-05-16 16:19:00,
2013-05-16 09:26:00,68.0,20.0,-100.00,SSW,205,18.0,24.0,16,-99.99,,,0.00,697.000000,,2013-05-16 16:26:00,
2013-05-16 10:00:00,68.0,20.0,-100.00,SSW,205,18.0,24.0,16,-99.99,,,0.00,697.000000,,2013-05-16 17:00:00,
2013-05-16 10:10:00,68.0,20.0,-100.00,SSW,205,18.0,24.0,16,-99.99,,,0.00,697.000000,,2013-05-16 17:10:00,
2013-05-16 10:20:00,68.0,20.0,-100.00,SSW,205,18.0,24.0,16,-99.99,,,0.00,697.000000,,2013-05-16 17:20:00,
2013-05-16 10:26:00,-999.0,-99.9,-100.00,SW,219,15.0,25.0,12,0.00,,,0.00,749.000000,,2013-05-16 17:26:00,
2013-05-16 11:00:00,-999.0,-99.9,-100.00,SW,219,15.0,25.0,12,0.00,,,0.00,749.000000,,2013-05-16 18:00:00,
2013-05-16 11:10:00,73.0,17.0,-100.00,SW,219,15.0,25.0,12,0.00,,,0.00,749.000000,,2013-05-16 18:10:00,
2013-05-16 11:20:00,73.0,17.0,-100.00,SW,219,15.0,25.0,12,0.00,,,0.00,749.000000,,2013-05-16 18:20:00,
2013-05-16 11:26:00,78.0,17.0,-100.00,SSW,200,15.0,25.0,10,0.00,,,0.00,1152.000000,,2013-05-16 18:26:00,
2013-05-16 12:00:00,-999.0,-99.9,-100.00,SSW,200,15.0,25.0,10,0.00,,,0.00,1152.000000,,2013-05-16 19:00:00,
2013-05-16 12:10:00,78.0,17.0,-100.00,SSW,200,15.0,25.0,10,0.00,,,0.00,1152.000000,,2013-05-16 19:10:00,
2013-05-16 12:20:00,78.0,17.0,-100.00,SSW,200,15.0,25.0,10,0.00,,,0.00,1152.000000,,2013-05-16 19:20:00,
2013-05-16 13:00:00,-999.0,-99.9,-100.00,WNW,284,9.0,29.0,7,0.00,,,0.00,1220.000000,,2013-05-16 20:00:00,
2013-05-16 13:10:00,-999.0,-99.9,-100.00,WNW,284,9.0,29.0,7,0.00,,,0.00,1220.000000,,2013-05-16 20:10:00,
2013-05-16 13:20:00,79.0,-99.9,-100.00,WNW,284,9.0,29.0,7,0.00,,,0.00,1220.000000,,2013-05-16 20:20:00,
2013-05-16 14:00:00,79.0,-99.9,-100.00,WSW,247,9.0,23.0,9,0.00,,,0.00,1120.000000,,2013-05-16 21:00:00,
2013-05-16 14:10:00,79.0,-99.9,-100.00,WSW,247,9.0,23.0,9,0.00,,,0.00,1120.000000,,2013-05-16 21:10:00,
2013-05-16 15:00:00,-999.0,-99.9,-100.00,South,179,7.0,31.0,8,0.00,,,0.00,1049.000000,,2013-05-16 22:00:00,
2013-05-16 15:08:00,78.0,12.0,-100.00,South,179,7.0,31.0,8,0.00,,,0.00,1049.000000,,2013-05-16 22:08:00,
2013-05-16 16:01:00,74.0,14.0,-100.00,WSW,246,10.0,27.0,10,0.00,,,0.00,715.000000,,2013-05-16 23:01:00,
2013-05-16 16:06:00,74.0,14.0,-100.00,WSW,246,10.0,27.0,10,0.00,,,0.00,715.000000,,2013-05-16 23:06:00,
2013-05-16 16:54:00,75.0,17.0,-100.00,WSW,249,10.0,28.0,11,0.00,,,0.00,962.000000,,2013-05-16 23:54:00,
2013-05-16 17:02:00,75.0,17.0,-100.00,WSW,249,10.0,28.0,11,0.00,,,0.00,962.000000,,2013-05-17 00:02:00,
2013-05-16 17:53:00,70.0,20.0,-100.00,NW,317,10.0,29.0,15,0.00,,,0.00,672.000000,,2013-05-17 00:53:00,
2013-05-16 18:03:00,70.0,20.0,-100.00,NW,317,10.0,29.0,15,0.00,,,0.00,672.000000,,2013-05-17 01:03:00,
2013-05-16 18:52:00,64.0,22.0,-100.00,WNW,290,10.0,24.0,20,0.00,,,0.00,222.000000,,2013-05-17 01:52:00,
2013-05-16 19:02:00,64.0,22.0,-100.00,WNW,290,10.0,24.0,20,0.00,,,0.00,222.000000,,2013-05-17 02:02:00,
2013-05-16 19:53:00,63.0,26.0,-100.00,WSW,242,8.0,25.0,24,0.00,,,0.00,49.000000,,2013-05-17 02:53:00,
2013-05-16 20:01:00,63.0,26.0,-100.00,WSW,242,8.0,25.0,24,0.00,,,0.00,49.000000,,2013-05-17 03:01:00,
2013-05-16 20:11:00,63.0,26.0,-100.00,WSW,242,8.0,25.0,24,0.00,,,0.00,49.000000,,2013-05-17 03:11:00,
2013-05-16 20:22:00,63.0,26.0,-100.00,WSW,242,8.0,25.0,24,0.00,,,0.00,49.000000,,2013-05-17 03:22:00,
2013-05-16 20:53:00,59.0,28.0,-100.00,WSW,240,11.0,25.0,30,0.00,,,-99.99,5.000000,,2013-05-17 03:53:00,
2013-05-16 21:02:00,59.0,28.0,-100.00,WSW,240,11.0,25.0,30,0.00,,,-99.99,5.000000,,2013-05-17 04:02:00,
2013-05-16 21:13:00,59.0,28.0,-100.00,WSW,240,11.0,25.0,30,0.00,,,-99.99,5.000000,,2013-05-17 04:13:00,
2013-05-16 21:23:00,59.0,28.0,-100.00,WSW,240,11.0,25.0,30,0.00,,,-99.99,5.000000,,2013-05-17 04:23:00,
2013-05-16 21:53:00,57.0,29.0,-100.00,North,350,12.0,27.0,34,0.00,,,0.00,0.000000,,2013-05-17 04:53:00,
2013-05-16 22:02:00,57.0,29.0,-100.00,North,350,12.0,27.0,34,0.00,,,0.00,0.000000,,2013-05-17 05:02:00,
2013-05-16 22:13:00,57.0,29.0,-100.00,North,350,12.0,27.0,34,0.00,,,0.00,0.000000,,2013-05-17 05:13:00,
2013-05-16 22:21:00,57.0,29.0,-100.00,North,350,12.0,27.0,34,0.00,,,0.00,0.000000,,2013-05-17 05:21:00,
2013-05-16 22:52:00,56.0,33.0,-100.00,SW,232,18.0,33.0,41,0.00,,,0.00,0.000000,,2013-05-17 05:52:00,
2013-05-16 23:01:00,56.0,33.0,-100.00,SW,232,18.0,33.0,41,0.00,,,0.00,0.000000,,2013-05-17 06:01:00,
2013-05-16 23:11:00,56.0,33.0,-100.00,SW,232,18.0,33.0,41,0.00,,,0.00,0.000000,,2013-05-17 06:11:00,
2013-05-16 23:21:00,56.0,33.0,-100.00,SW,232,18.0,33.0,41,0.00,,,0.00,0.000000,,2013-05-17 06:21:00,
2013-05-16 23:52:00,55.0,34.0,-100.00,SW,219,21.0,38.0,45,0.00,,,0.00,0.000000,,2013-05-17 06:52:00,